Weather in Algiers

Algeria     36˚46′19″N   3˚03′35″E
temp.,
°C
wind,
m/s
gust,
m/s
humid.,
%
clouds,
%
prec.,
mm/h
press.,
hPa
HPBL,
m
2 december, wed
wed201:00+15˚wsw47819 0.4 1015468
04:00+15˚wsw597326 0.4 1013585
07:00+15˚wsw596858 0.9 1013669
10:00+16˚w8117281 0.7 10111120
13:00+16˚wnw7106890 3.6 10101229
16:00+14˚nnw5779100 5.1 1010598
19:00+14˚nw4676100 6.8 1012696
22:00+13˚nne466568 5.5 1014662
3 december, thu
thu301:00+13˚e236758 6.3 1015565
04:00+13˚se126970 0.8 1015467
07:00+12˚ese116873 1.4 1016185
10:00+13˚ssw23620 0.0 1016486
13:00+16˚wsw12460 0.0 1013871
16:00+16˚nw33480 0.0 1011831
19:00+15˚w12544 0.0 1010260
22:00+14˚s225733 0.0 1009190
4 december, fri
fri401:00+13˚ssw234917 0.0 1008127
04:00+13˚sw495812 0.0 1005552
07:00+14˚ssw5116724 0.0 1003657
10:00+16˚sw6146395 0.1 10031677
13:00+18˚wsw11195475 0.2 10012285
16:00+17˚wsw10195463 0.3 10002190
19:00+16˚sw7176140 1.0 9992103
22:00+13˚wsw698591 4.9 998698
5 december, sat
sat501:00+13˚sw6147095 11.1 9981425
04:00+11˚wnw7981100 6.0 998804
07:00+10˚wsw91177100 15.5 9991178
10:00+10˚wsw81165100 1.9 10021310
13:00+11˚wsw101363100 2.9 10031589
16:00+11˚w101357100 2.3 10041657
19:00+11˚w81253100 5.1 10061762
22:00+11˚wsw81256100 2.6 10081590
6 december, sun
sun601:00+11˚wsw81257100 3.9 10081443
04:00+11˚w9136097 1.7 10091575
07:00+11˚wsw6115894 2.8 10091286
10:00+11˚sw685423 0.1 1010965
13:00+13˚wsw795012 0.2 10101586
16:00+13˚w11155371 0.8 10101949
19:00+12˚w9145270 1.6 10122167
22:00+13˚w8135375 0.5 10142143